Location: *
(46.1200°N, 11.2700°E)
Time: 15:45:15
(UTC+00:00)

Cosmos 1707 Rocket - Pass Details

Date: 02 March 2021
Orbit: 604 x 632 km, 82.5° (Epoch: 23 April)

Event Time Altitude Azimuth Distance (km) Brightness Sun altitude
Rises 17:40:19 0° 350° (N) 2,908 7.1 -7.3°
Reaches altitude 10° 17:42:33 10° 350° (N) 1,993 6.3 -7.7°
Maximum altitude 17:46:58 85° 263° (W) 623 3.6 -8.4°
Drops below altitude 10° 17:51:19 10° 174° (S) 1,960 6.1 -9.2°
Sets 17:53:31 0° 174° (S) 2,856 6.9 -9.6°
